PREFIRE-1 (59881 NORAD) Tracking and Keplerian Element Data

This shows tracking and keplerian element data for the satellite.

Feedback or suggestion? Click here.




ElementValue
Catalog59881
NamePREFIRE-1
Epoch Orbit209
Epoch Day160.18169165
Epoch Year2024
RAAN17.7835
Inclination97.4967
Eccentricity0.0012815
Argument of Perigee253.126
Mean Anonmoly106.8566
Mean Motion15.11943211
Decay Rate5.487E-05
L11 59881U 24099A 24160.18169165 .00005487 00000+0 32325-3 0 9996
L22 59881 97.4967 17.7835 0012815 253.1260 106.8566 15.11943211 2093



Live tracking and technical data element details for PREFIRE-1 (NORAD 59881). PREFIRE-1 can be tracked NOW for your location showing map with azimuth and elevation plus other details from your city location.







IsCatalogInMostPopularTable: catalog: 59881, numindb: 11
Update: records affected: 1



GetName: 59881 PREFIRE-1

Hit Count: updated at: Tue, 16 Jul 2024 02:48:25 GMT